[[{"header":{"parameterUnit":"m.s-1","parameterCategory":1,"la1":30.2991,"la2":30.254,"lo1":-89.0895,"lo2":-89.0444,"dy":0.0017,"dx":0.0017,"nx":28,"ny":28,"refTime":"2024-05-08T03:00:00:Z","depth":0,"parameterNumber":2,"parameterNumberName":"U-component_of_WINDS"},"data":[0,0,0,0,0,0,0,0,0,0,0,0,0,0,0,0,0,0,0,0,0,0,0,0,0,0,0,0,0,0,0,0,0,0,0,0,0,0,0,0,0,0,0,0,0,0,0,0,0,0,0,0,0,0,0,0,0,0,0.2539,0.2539,0,0.2545,0.2545,0.2545,0.2526,0.2526,0.2525,0.2525,0.2533,0.2534,0.2534,0,0,0,0,0,0,0,0,0,0,0,0,0,0.2512,0.2513,0.2539,0.2539,0.2539,0.2545,0.2545,0.2545,0.2527,0.2526,0.2525,0.2525,0.2533,0.2534,0.2535,0,0,0,0,0,0,0,0,0,0,0,0,0,0.2522,0.2513,0.2539,0.2531,0.253,0.2545,0.2545,0.2545,0.2527,0.2526,0.2525,0.2524,0.2532,0.2534,0.2535,0.2559,0,0,0.2538,0.2539,0,0,0,0,0,0,0,0,0.2521,0.2523,0.2532,0.2531,0.253,0.2534,0.2539,0.255,0.2527,0.2528,0.2525,0.2524,0.2534,0.2535,0.2538,0.2559,0.256,0.2538,0.2539,0.2539,0.254,0,0,0,0,0,0,0,0.2521,0.2522,0.2541,0.2532,0.2531,0.2527,0.2527,0.2541,0.2536,0.2528,0.2526,0.2527,0.2534,0.2537,0.2538,0.256,0.2538,0.2539,0.254,0.254,0.2599,0.26,0,0,0,0,0,0,0.2521,0.2522,0.2541,0.2542,0.2524,0.2528,0.2528,0.2534,0.2536,0.2535,0.2528,0.2526,0.2536,0.2537,0.2538,0.2566,0.2539,0.254,0.2541,0.2598,0.2599,0.26,0,0,0,0,0,0,0.252,0.2523,0.2541,0.2531,0.2533,0.2529,0.2536,0.2534,0.2538,0.2536,0.2535,0.2532,0.2535,0.2537,0.2553,0.2566,0.2541,0.2542,0.2597,0.2599,0.26,0.2621,0,0,0,0,0,0,0.252,0.2523,0.2532,0.2532,0.2534,0.2556,0.2536,0.2535,0.254,0.2537,0.254,0.2539,0.2534,0.2552,0.2554,0.2567,0.2543,0.2596,0.2598,0.2599,0.2619,0.2623,0.2626,0,0,0,0,0,0.2519,0.2538,0.2532,0.2535,0.2545,0.2556,0.2558,0.2551,0.2541,0.255,0.2548,0.2539,0.2564,0.2554,0.2557,0.2569,0.2595,0.2597,0.2599,0.2617,0.2622,0.2626,0,0,0,0,0,0,0.2541,0.2538,0.2532,0.2552,0.2554,0.2553,0.2564,0.2556,0.2563,0.2561,0.2553,0.2554,0.2571,0.2572,0.2561,0.2592,0.2578,0.258,0.2591,0.2595,0.2598,0.2597,0.2544,0,0,0,0,0,0.2548,0.2557,0.2554,0.2572,0.2574,0.2569,0.2574,0.2568,0.2571,0.2572,0.2572,0.2575,0.2584,0.259,0.2597,0.2619,0.2619,0.2629,0.2633,0.2636,0.2638,0.2648,0.2652,0.2607,0.2607,0.2607,0,0,0.2563,0.2563,0.2569,0.2577,0.2578,0.2587,0.257,0.2581,0.2588,0.2574,0.2589,0.2589,0.2592,0.2611,0.2619,0.2612,0.265,0.2638,0.264,0.2641,0.265,0.2655,0.2659,0.2608,0.2608,0.2608,0,0,0.2595,0.2596,0.261,0.2611,0.2613,0.2609,0.2613,0.2613,0.2612,0.2627,0.2616,0.2624,0.2639,0.2641,0.2645,0.2676,0.2667,0.2678,0.2696,0.2706,0.271,0.2713,0.2723,0.2727,0.2681,0.2681,0.2681,0,0.2613,0.2626,0.2618,0.2629,0.2633,0.262,0.2634,0.2636,0.264,0.2643,0.2635,0.2652,0.2654,0.2672,0.2679,0.2683,0.2686,0.2678,0.271,0.2713,0.2716,0.2725,0.2729,0.2682,0.2682,0.2682,0.2682,0,0.2648,0.2658,0.2669,0.2672,0.2677,0.269,0.2684,0.2689,0.2683,0.2681,0.2695,0.2696,0.2703,0.2707,0.2702,0.2725,0.272,0.2711,0.2697,0.2721,0.273,0.2734,0.2684,0.2683,0.2683,0.2683,0,0,0.2694,0.2692,0.2696,0.2697,0.2698,0.2705,0.2717,0.2722,0.2727,0.2731,0.274,0.2752,0.2743,0.2747,0.2742,0.2751,0.2774,0.274,0.274,0.2746,0.2797,0.2803,0.2807,0.2768,0.2769,0.2769,0.2796,0,0.2724,0.2744,0.2736,0.2756,0.2764,0.2751,0.2761,0.2763,0.276,0.2767,0.2765,0.2773,0.2761,0.2763,0.2771,0.2769,0.2784,0.2767,0.2776,0.2777,0.2775,0.2812,0.2819,0.2844,0.28,0.28,0.2801,0,0.2762,0.2766,0.2786,0.2784,0.2787,0.2796,0.28,0.2807,0.2808,0.2805,0.2808,0.2801,0.2812,0.2798,0.2813,0.2802,0.2805,0.2805,0.2806,0.2806,0.279,0.2812,0.2852,0.2856,0.2806,0.2806,0.2805,0,0.2792,0.2802,0.2815,0.2816,0.2815,0.2821,0.2821,0.2821,0.2824,0.2828,0.283,0.2836,0.2839,0.2843,0.2837,0.2827,0.2853,0.2838,0.285,0.2851,0.2856,0.2855,0.2896,0.286,0.286,0.286,0.2859,0,0.2826,0.2839,0.2828,0.2836,0.285,0.2841,0.2855,0.2853,0.2853,0.2861,0.2851,0.2858,0.285,0.2856,0.2852,0.2864,0.2866,0.2864,0.2863,0.2864,0.2865,0.2866,0.2864,0.2861,0.286,0.286,0.286,0,0.2861,0.2855,0.2868,0.2865,0.2864,0.2874,0.2871,0.2879,0.2875,0.2884,0.2886,0.2881,0.2888,0.2882,0.289,0.2886,0.2902,0.2899,0.2902,0.29,0.2912,0.2911,0.2955,0.296,0.2921,0.2921,0.2922,0,0.2883,0.2892,0.2889,0.2893,0.2893,0.2899,0.2902,0.2894,0.2898,0.2899,0.2906,0.2911,0.2915,0.2927,0.2924,0.2929,0.2925,0.294,0.2926,0.2927,0.2924,0.2923,0.2924,0.2943,0.2943,0.2944,0.2944,0,0.2921,0.2917,0.2922,0.2925,0.2928,0.2931,0.2932,0.2936,0.2928,0.2932,0.2938,0.2942,0.2948,0.2954,0.2957,0.2957,0.2949,0.2948,0.2951,0.2953,0.2954,0.2952,0.2908,0.2947,0.2947,0.2947,0.2947,0.2947,0.2949,0.2956,0.2955,0.296,0.296,0.2961,0.2967,0.2964,0.2969,0.2973,0.2968,0.2975,0.2975,0.2979,0.298,0.2986,0.298,0.2984,0.2985,0.2986,0.2987,0.2953,0.2987,0.2987,0.2987,0.2986,0.2986,0,0.2986,0.2984,0.2989,0.2991,0.2994,0.2986,0.2987,0.299,0.2997,0.2997,0.3001,0.3008,0.3013,0.301,0.3014,0.3019,0.3015,0.302,0.302,0.3019,0.2993,0.299,0.3023,0.3023,0.3023,0.3023,0.3023,0.3023,0.3005,0.3016,0.3012,0.3023,0.3021,0.3027,0.3028,0.3029,0.3029,0.3037,0.3041,0.3038,0.3037,0.3041,0.3045,0.3044,0.3046,0.3052,0.305,0.3025,0.3021,0.3018,0.3015,0.3053,0.3053,0.3075,0.3075,0.3076]},{"header":{"parameterUnit":"m.s-1","parameterCategory":1,"la1":30.2991,"la2":30.254,"lo1":-89.0895,"lo2":-89.0444,"dy":0.0017,"dx":0.0017,"nx":28,"ny":28,"refTime":"2024-05-08T03:00:00:Z","depth":0,"parameterNumber":3,"parameterNumberName":"V-component_of_WINDS"},"data":[0,0,0,0,0,0,0,0,0,0,0,0,0,0,0,0,0,0,0,0,0,0,0,0,0,0,0,0,0,0,0,0,0,0,0,0,0,0,0,0,0,0,0,0,0,0,0,0,0,0,0,0,0,0,0,0,0,0,5.4753,5.4753,0,5.4775,5.4775,5.4775,5.4739,5.4738,5.4737,5.4736,5.4754,5.4756,5.4757,0,0,0,0,0,0,0,0,0,0,0,0,0,5.4677,5.4679,5.4753,5.4753,5.4753,5.4775,5.4775,5.4775,5.4739,5.4738,5.4736,5.4735,5.4754,5.4755,5.4757,0,0,0,0,0,0,0,0,0,0,0,0,0,5.4706,5.4679,5.4753,5.4738,5.4737,5.4775,5.4775,5.4775,5.474,5.4738,5.4736,5.4734,5.4753,5.4755,5.4758,5.4809,0,0,5.4765,5.4766,0,0,0,0,0,0,0,0,5.4704,5.4708,5.474,5.4739,5.4738,5.4752,5.4755,5.4787,5.474,5.4739,5.4736,5.4733,5.4755,5.4757,5.4765,5.481,5.4811,5.4765,5.4767,5.4768,5.4769,0,0,0,0,0,0,0,5.4702,5.4707,5.4761,5.4741,5.4739,5.473,5.4732,5.4761,5.4756,5.4739,5.4736,5.4739,5.4754,5.4763,5.4765,5.4811,5.4765,5.4767,5.4769,5.477,5.49,5.4902,0,0,0,0,0,0,5.4702,5.4706,5.4761,5.4762,5.4716,5.4732,5.4735,5.475,5.4756,5.4755,5.4741,5.4738,5.4759,5.4762,5.4766,5.4826,5.4768,5.477,5.4772,5.4898,5.49,5.4902,0,0,0,0,0,0,5.4701,5.4708,5.476,5.4733,5.4739,5.4736,5.4753,5.4751,5.476,5.4758,5.4757,5.4751,5.4758,5.4762,5.4799,5.4826,5.4771,5.4773,5.4895,5.4899,5.4901,5.4947,0,0,0,0,0,0,5.4699,5.4707,5.4727,5.4734,5.4741,5.4794,5.4754,5.4753,5.4764,5.476,5.4767,5.4766,5.4757,5.4795,5.4801,5.4828,5.4775,5.4893,5.4897,5.49,5.4943,5.4952,5.4959,0,0,0,0,0,5.4696,5.4739,5.4729,5.4735,5.4766,5.4795,5.4799,5.4789,5.4767,5.4786,5.4786,5.4766,5.4823,5.48,5.4806,5.4834,5.4891,5.4896,5.49,5.494,5.495,5.4958,0,0,0,0,0,0,5.4733,5.4739,5.4728,5.4774,5.4785,5.4789,5.4813,5.48,5.4815,5.4811,5.4796,5.4798,5.4838,5.484,5.4814,5.4884,5.4853,5.4859,5.4881,5.4891,5.4898,5.4896,5.4777,0,0,0,0,0,5.4747,5.4772,5.4775,5.4815,5.4821,5.4817,5.4829,5.4821,5.483,5.4834,5.4836,5.4845,5.4865,5.4878,5.4896,5.4944,5.4945,5.4967,5.4975,5.4981,5.4985,5.5011,5.502,5.4917,5.4917,5.4917,0,0,5.4775,5.4782,5.4797,5.4823,5.483,5.4855,5.4821,5.4848,5.4866,5.4838,5.4873,5.4875,5.4884,5.4927,5.4946,5.493,5.5015,5.4987,5.4992,5.4993,5.5016,5.5026,5.5035,5.492,5.492,5.4919,0,0,5.4839,5.4847,5.4881,5.4889,5.4902,5.4899,5.4907,5.4914,5.4915,5.495,5.493,5.4951,5.4985,5.4993,5.5001,5.507,5.5052,5.5077,5.5115,5.514,5.5148,5.5155,5.5179,5.5188,5.5082,5.5082,5.5082,0,5.4871,5.4909,5.49,5.4929,5.4941,5.4919,5.4953,5.4961,5.4978,5.4986,5.4969,5.5013,5.5017,5.5061,5.5078,5.5086,5.5094,5.5075,5.5148,5.5155,5.5162,5.5184,5.5193,5.5085,5.5084,5.5084,5.5084,0,5.4948,5.4975,5.5001,5.502,5.5034,5.5066,5.5061,5.5077,5.5068,5.5066,5.5102,5.5108,5.5127,5.5137,5.5128,5.518,5.517,5.5151,5.5119,5.5174,5.5195,5.5204,5.5089,5.5088,5.5087,5.5086,0,0,5.5033,5.5048,5.5058,5.5066,5.5079,5.5099,5.513,5.515,5.5163,5.5176,5.5201,5.5232,5.5215,5.5224,5.5216,5.5238,5.5291,5.5216,5.5216,5.5229,5.5348,5.5362,5.5372,5.5281,5.5282,5.5283,5.5347,0,5.5095,5.515,5.5143,5.5195,5.5219,5.52,5.5226,5.5236,5.5237,5.5256,5.5256,5.5278,5.5254,5.526,5.5281,5.528,5.5315,5.5276,5.5302,5.5303,5.5298,5.5383,5.5396,5.5456,5.5355,5.5357,5.5358,0,5.5175,5.5193,5.5247,5.5257,5.5267,5.5291,5.531,5.5329,5.5341,5.5339,5.5351,5.5339,5.5369,5.5338,5.5379,5.5352,5.5363,5.5365,5.5367,5.5367,5.5332,5.5384,5.5475,5.5483,5.537,5.5369,5.5368,0,5.523,5.5268,5.5305,5.5313,5.5326,5.5344,5.535,5.5359,5.5372,5.5388,5.5396,5.5415,5.5425,5.544,5.5433,5.5411,5.5474,5.5443,5.5473,5.5473,5.5485,5.5484,5.5578,5.5495,5.5495,5.5494,5.5494,0,5.53,5.5333,5.533,5.5353,5.539,5.5383,5.5419,5.5423,5.5432,5.5454,5.5439,5.546,5.5451,5.5471,5.5466,5.55,5.5504,5.5503,5.5501,5.5504,5.5504,5.5509,5.5504,5.5497,5.5496,5.5496,5.5495,0,5.5366,5.5366,5.5405,5.5416,5.5419,5.5446,5.5454,5.5475,5.5475,5.5503,5.551,5.5509,5.5532,5.5528,5.5552,5.5549,5.5591,5.5585,5.5588,5.5586,5.5615,5.5612,5.5714,5.5727,5.5637,5.5638,5.5639,0,5.541,5.5436,5.5449,5.5464,5.5472,5.5496,5.551,5.5504,5.5518,5.5534,5.5553,5.5575,5.5593,5.563,5.5631,5.5651,5.5643,5.5678,5.5646,5.5648,5.5642,5.564,5.5643,5.5684,5.5685,5.5685,5.5686,0,5.5487,5.5486,5.5507,5.5529,5.5546,5.5562,5.5577,5.559,5.5585,5.5602,5.5627,5.564,5.5667,5.5689,5.5707,5.5712,5.5698,5.5697,5.5704,5.5706,5.5707,5.5706,5.5604,5.5694,5.5693,5.5692,5.5692,5.5692,5.5542,5.5564,5.5578,5.5602,5.5613,5.5628,5.5648,5.5652,5.5673,5.5695,5.569,5.5718,5.5729,5.5752,5.5759,5.578,5.5767,5.5778,5.5781,5.5783,5.5787,5.5705,5.5783,5.5783,5.5783,5.5783,5.5783,0,5.5617,5.5626,5.5648,5.5671,5.569,5.5678,5.5694,5.571,5.5735,5.5747,5.5766,5.5794,5.5815,5.5819,5.5839,5.5855,5.5849,5.5861,5.5858,5.586,5.5798,5.5788,5.5865,5.5865,5.5865,5.5865,5.5865,5.5865,5.5658,5.5695,5.5697,5.5739,5.5746,5.5775,5.5785,5.5798,5.5808,5.5841,5.586,5.5863,5.5871,5.5892,5.5912,5.5912,5.5919,5.5933,5.5931,5.5872,5.5864,5.5856,5.5847,5.5935,5.5935,5.5991,5.5992,5.5992]}]]